Theta_e
307 308 308 308 308 307 307 308 308 308 307 308 307 307 308 308 309 309 309 309 309 309 309 309 308 306 306 305 306 306 306 310 316 319 319 319 317 314 314 310 310 310 308 314 320 320 319 318 319 317 314 315 314 317 318 316 317 315 315 314 312 313 314 316 317 316 315 317 317 317 317 317 318 318 319 320 323 330 333 338 343 342 345 347 348 348 349 348
307 307 307 307 307 307 307 308 307 307 307 307 308 308 308 309 309 308 309 309 308 308 308 309 308 306 306 306 307 306 308 314 318 319 319 318 313 310 314 311 310 310 308 317 321 318 318 317 318 315 314 314 314 316 316 315 315 315 315 314 313 316 317 316 317 316 316 316 316 317 317 317 317 318 319 320 322 325 331 339 343 345 345 346 349 349 348 348
307 306 306 307 307 307 307 308 307 307 307 307 308 308 308 309 309 309 309 309 309 308 308 309 309 306 305 306 307 306 310 317 318 320 319 313 308 311 315 310 310 308 310 320 320 317 319 317 317 315 313 313 314 315 315 315 315 315 315 314 315 317 317 317 316 315 316 316 315 316 316 317 317 318 319 319 321 321 330 338 341 345 345 344 345 347 349 349
306 306 306 306 307 307 307 307 307 307 307 307 308 308 308 308 308 308 308 308 308 308 308 309 309 306 304 305 305 306 313 317 318 322 317 309 308 313 315 310 309 308 313 322 319 317 319 317 317 314 313 314 313 315 315 315 315 315 315 315 316 317 317 316 316 315 316 315 315 316 316 317 317 318 319 319 321 321 329 334 337 344 345 345 343 345 350 349
306 306 306 306 306 306 306 306 307 307 307 307 307 308 308 308 308 308 308 308 307 308 309 308 307 304 303 304 304 308 315 317 318 322 315 308 309 314 314 309 308 310 317 322 318 317 318 317 316 313 314 314 313 314 314 315 316 315 315 316 317 316 316 316 316 315 315 315 315 316 316 317 317 317 318 318 320 319 325 327 334 343 342 343 343 345 348 348
306 306 306 306 306 306 306 306 307 307 307 307 307 307 307 307 308 308 308 308 307 307 308 307 305 303 303 302 303 310 316 315 318 319 312 308 311 313 311 307 309 314 319 319 318 318 316 316 315 313 314 313 314 314 314 315 315 315 315 316 316 315 316 315 316 315 315 315 315 316 316 317 316 317 318 318 319 318 322 323 326 340 340 341 344 345 347 347
305 305 305 306 306 306 306 306 306 306 307 307 307 307 307 307 307 307 307 308 307 307 308 307 303 302 302 302 308 314 316 314 319 317 312 311 312 311 308 308 312 317 319 316 317 316 314 315 314 313 313 313 314 313 314 315 315 315 314 315 316 316 316 315 315 315 315 315 315 316 316 316 315 316 318 317 319 319 323 324 322 335 339 337 341 343 346 347
305 305 305 305 305 306 306 306 306 306 306 307 307 307 307 307 307 307 307 307 306 306 307 306 302 301 302 307 313 316 316 315 320 317 311 313 311 309 309 312 315 318 318 315 316 315 314 315 313 314 313 313 314 314 314 314 314 314 313 315 316 316 316 316 315 315 315 316 316 316 315 316 316 316 318 317 319 322 325 326 327 334 336 336 340 344 347 347
305 305 305 305 305 305 305 306 306 306 306 306 307 307 307 306 306 306 306 307 306 305 307 304 301 301 304 310 315 314 314 315 320 318 314 315 312 309 312 315 316 316 315 315 315 314 314 314 313 314 313 313 314 315 314 314 313 314 314 314 315 315 316 315 315 316 316 316 316 315 315 315 316 316 317 317 319 323 325 329 333 334 334 336 340 343 346 346
305 305 305 305 305 305 305 305 305 306 306 306 307 306 307 306 306 306 306 307 306 305 306 304 300 301 306 313 314 313 313 314 320 322 320 318 314 313 315 316 315 315 315 315 314 313 314 313 314 314 312 313 314 314 314 314 314 315 316 314 315 315 316 316 316 316 316 316 315 315 315 315 316 316 316 318 320 323 327 332 334 335 337 338 338 341 346 346
304 304 305 305 305 305 305 305 305 306 306 306 306 306 306 306 306 306 306 306 305 305 304 302 298 303 310 313 312 311 311 315 320 323 322 319 317 316 317 316 315 316 315 314 314 313 314 314 314 313 312 313 313 313 314 314 314 315 316 315 315 315 315 316 315 316 315 315 315 314 315 315 316 316 316 319 321 322 328 334 334 336 339 340 340 342 344 345
304 304 305 305 304 305 305 305 305 305 305 305 306 306 306 305 304 304 304 303 303 303 301 298 299 306 312 312 312 310 311 315 318 321 321 317 317 318 317 316 315 316 315 314 314 313 313 314 313 312 312 313 313 313 314 315 315 314 315 314 314 314 314 315 315 315 315 315 316 315 314 313 315 315 316 319 320 321 326 333 335 336 339 339 340 343 343 344
304 304 304 304 304 304 304 305 305 305 305 305 305 306 306 305 303 303 304 305 304 304 301 298 302 309 314 314 313 311 311 315 317 320 319 315 317 318 316 316 316 316 316 316 315 314 313 313 313 312 312 314 313 314 315 315 314 314 315 314 314 313 313 315 315 315 315 315 315 314 310 311 315 315 316 317 319 321 323 330 334 335 337 335 337 341 342 343
304 304 304 304 304 304 304 305 305 305 305 304 305 306 305 303 303 305 307 307 307 306 303 300 305 312 315 314 312 310 312 315 314 317 318 317 318 317 317 317 316 317 316 316 315 313 313 312 312 313 313 314 314 315 315 314 314 314 313 313 313 310 311 316 316 315 315 314 315 314 308 310 316 316 316 317 319 321 321 326 331 333 335 333 336 342 342 342
304 304 304 304 304 304 304 304 304 305 304 304 304 304 303 302 306 308 307 307 307 306 303 303 308 315 316 314 312 309 309 310 312 314 317 317 317 317 316 316 317 317 316 315 314 313 313 312 312 313 314 314 315 315 314 314 315 314 312 311 312 310 311 317 316 315 315 314 315 314 308 311 316 316 317 318 318 321 321 323 328 331 334 334 338 343 342 342
303 303 303 304 304 304 304 304 304 304 304 303 303 302 301 305 308 308 306 304 304 303 306 310 313 315 315 313 313 310 308 308 309 311 315 316 316 316 316 316 317 317 316 315 314 313 312 312 311 313 314 313 314 314 314 313 313 315 312 309 311 310 310 315 315 315 315 314 315 313 311 312 316 317 317 318 319 321 321 322 328 331 332 334 337 341 342 342
303 303 303 303 303 303 303 304 304 304 303 302 301 301 303 308 309 308 307 305 305 306 310 316 315 314 314 312 312 313 312 311 310 309 312 314 314 315 315 316 317 317 317 316 314 313 312 312 312 313 314 314 315 314 312 310 310 313 313 310 312 312 311 311 314 316 315 314 315 314 313 313 316 317 316 317 318 319 320 321 328 332 331 333 335 338 340 342
303 303 303 303 303 303 303 304 304 304 302 300 301 305 307 308 308 310 310 310 311 312 313 315 313 313 314 311 311 314 315 315 314 311 311 313 313 314 315 316 317 317 316 315 314 313 311 311 312 313 314 314 315 314 311 310 311 311 312 311 310 312 312 311 313 315 315 314 314 315 314 314 315 316 316 317 317 318 319 321 326 331 331 332 333 335 338 340
303 303 303 303 303 303 303 304 303 303 300 298 304 309 310 309 310 312 314 314 314 316 317 315 313 311 311 311 311 314 316 316 316 315 314 313 313 313 315 316 317 316 315 315 314 313 312 311 313 312 312 314 314 314 313 313 314 313 314 313 311 311 311 314 315 315 315 315 314 314 314 315 315 316 316 316 317 317 318 320 323 328 330 330 330 333 336 338
303 303 303 303 303 303 303 303 303 302 299 300 307 312 314 316 318 318 316 314 315 316 315 313 313 312 310 311 312 314 315 315 315 316 316 315 314 314 314 316 316 315 315 314 314 314 312 311 312 312 312 314 314 314 315 315 316 316 315 314 312 311 311 315 317 315 316 314 314 315 315 315 315 316 317 316 317 317 317 319 321 324 326 328 329 330 333 336
303 302 303 303 303 303 303 303 302 301 298 301 307 314 316 314 314 315 313 313 314 315 312 311 313 311 311 312 312 314 313 313 314 315 317 316 314 313 313 314 315 315 315 315 316 315 313 311 313 314 313 314 315 316 316 316 319 317 315 313 311 311 311 315 317 315 316 314 313 315 314 315 316 316 316 316 317 317 317 318 320 322 322 325 328 328 330 332
302 302 303 302 303 303 303 302 301 298 298 304 309 313 313 311 311 311 310 311 312 312 311 312 311 310 312 312 312 313 312 312 312 314 317 315 314 314 312 314 315 315 315 315 317 316 314 312 313 314 314 315 316 318 317 318 319 317 315 312 310 312 313 314 317 317 316 314 314 315 314 315 316 316 317 316 316 317 318 318 319 321 321 322 324 327 328 328
302 302 302 302 303 302 301 300 298 297 300 309 313 312 312 310 310 311 311 312 313 312 311 311 311 311 311 311 312 312 311 312 312 314 317 315 314 314 313 313 314 315 315 315 317 315 313 313 314 314 314 316 317 318 319 318 317 316 314 311 309 312 312 311 314 317 316 315 315 316 315 315 316 316 316 317 316 316 317 317 318 318 319 321 322 324 326 327
302 302 302 302 302 301 300 298 299 302 306 310 310 309 310 310 310 311 312 314 314 313 313 312 312 312 312 313 313 311 310 311 310 313 316 315 314 314 313 314 313 314 315 316 317 314 314 315 315 314 315 317 317 317 317 316 315 315 315 313 311 313 313 311 314 317 316 316 317 316 313 312 314 315 315 316 317 316 316 317 318 318 318 319 320 321 325 326
302 302 302 302 302 301 298 300 305 310 310 309 307 307 309 309 310 311 313 316 314 312 313 313 312 313 313 313 313 312 311 310 309 312 316 315 315 314 313 314 313 312 314 316 316 314 314 316 316 315 315 316 315 316 316 315 313 314 316 315 313 314 314 314 315 315 312 312 316 315 309 309 313 314 315 316 316 316 316 316 317 318 317 318 318 320 323 324
301 302 302 302 301 299 300 307 312 309 307 307 309 309 309 310 311 311 314 317 315 313 312 313 313 312 312 313 313 313 312 311 310 313 315 315 315 315 314 314 313 312 314 316 316 315 315 316 316 315 315 314 314 314 315 316 312 311 315 316 315 315 315 314 313 312 309 310 315 316 311 309 311 313 316 317 317 317 316 317 317 317 316 317 318 318 321 321
302 302 301 302 301 300 304 311 309 305 307 309 310 310 309 311 312 312 316 316 313 314 313 313 314 311 312 314 313 313 313 313 311 312 314 314 315 315 314 314 313 312 315 316 314 315 316 317 317 315 314 314 313 312 314 316 312 311 315 316 316 315 314 314 312 311 311 312 314 315 313 310 309 311 316 317 317 317 317 318 317 316 317 319 319 319 319 320
302 301 301 302 300 300 304 307 307 307 309 310 309 309 310 312 312 314 319 318 314 313 314 313 312 310 312 312 312 313 313 312 311 312 313 314 314 314 314 314 314 313 315 315 313 315 317 317 316 315 314 314 313 313 315 315 313 313 315 316 315 315 314 314 313 311 312 311 310 311 312 311 308 311 316 317 317 318 317 317 317 319 322 324 324 324 322 322
301 301 302 301 300 302 304 303 307 309 308 309 308 309 311 312 312 315 318 316 313 312 312 311 310 311 311 311 312 313 312 312 312 312 311 312 313 314 314 314 315 315 314 315 314 315 317 316 316 315 314 314 314 314 315 315 315 314 315 315 314 314 314 314 313 311 311 311 309 310 311 310 309 311 312 313 315 316 317 321 324 324 325 326 326 326 325 324
301 301 301 300 301 306 308 306 308 307 306 307 308 310 312 311 314 317 313 312 312 311 311 310 310 311 311 311 312 312 312 313 312 311 311 311 312 314 315 314 315 315 315 315 314 315 316 315 315 315 315 315 315 315 315 315 315 315 315 314 313 313 313 314 314 311 310 311 310 311 311 309 308 310 312 316 318 320 324 328 329 326 326 326 326 326 324 323
301 301 301 300 303 306 308 309 309 307 306 308 310 312 312 313 316 316 312 310 311 310 309 310 310 311 311 311 313 312 311 312 312 312 311 310 311 313 314 314 314 315 315 315 314 314 315 315 315 315 315 316 315 315 315 315 315 315 314 313 311 311 312 312 312 312 311 311 310 311 311 309 308 310 316 322 323 323 326 331 331 328 327 326 326 327 325 325
301 301 301 301 303 304 306 309 309 307 308 310 311 312 312 314 312 310 311 309 309 310 309 310 310 310 311 311 312 312 312 312 312 312 311 310 311 312 312 313 314 313 312 312 314 314 314 315 315 314 314 315 315 314 314 315 315 314 314 312 309 310 312 312 311 311 312 311 311 312 311 310 310 312 318 323 323 325 328 331 331 330 329 328 328 330 328 329
300 300 301 301 302 303 305 307 308 308 310 311 312 311 312 313 310 308 309 308 308 310 308 309 310 309 310 311 312 313 312 313 312 312 312 309 311 312 311 312 313 313 312 313 313 312 313 315 314 314 314 314 315 313 312 313 313 313 312 310 309 310 312 314 313 312 312 312 311 313 313 311 310 314 323 326 325 327 329 330 331 330 331 331 331 330 329 330
300 300 301 302 303 305 306 308 309 310 311 312 312 312 312 312 310 309 309 308 308 308 308 309 309 309 310 310 312 313 313 313 312 312 313 311 311 312 311 311 312 313 313 313 313 312 312 314 314 315 314 314 315 313 313 314 313 313 313 311 310 310 312 313 313 313 314 313 311 313 314 311 311 318 326 327 326 326 327 329 330 330 331 333 333 331 329 330
301 303 304 304 306 308 307 309 311 311 313 313 312 311 310 309 309 309 309 308 308 307 308 309 308 308 309 309 312 313 313 315 313 312 313 312 311 312 312 311 311 313 313 311 312 313 312 312 314 315 315 315 315 314 315 314 313 314 314 312 310 311 312 311 312 314 316 315 313 312 313 313 315 323 326 325 325 327 327 328 329 330 331 332 334 334 332 332
304 309 310 310 311 311 310 309 311 312 314 314 312 310 309 308 308 308 308 308 308 307 307 307 307 307 308 309 310 312 313 315 314 313 313 313 313 313 313 312 312 312 313 312 313 313 311 312 314 315 315 315 315 315 314 314 313 315 313 311 312 313 314 311 311 313 315 316 314 311 313 313 316 323 325 324 326 327 326 327 329 332 333 333 334 335 334 334
308 313 314 314 314 313 311 310 311 312 313 314 312 310 308 308 307 307 308 308 307 307 306 306 306 306 306 308 310 311 313 314 315 314 313 313 313 313 313 314 314 312 313 313 313 314 313 313 314 314 314 315 315 315 315 314 314 313 312 313 314 315 314 313 313 313 314 316 313 310 311 311 314 322 326 326 329 329 326 326 330 332 332 333 333 334 334 334
309 313 315 314 313 312 311 310 311 311 311 312 311 309 308 307 307 307 307 307 307 307 306 306 308 308 307 309 310 311 312 313 314 314 313 313 314 316 314 314 314 313 313 313 313 315 316 313 313 315 315 315 314 314 314 314 314 313 314 315 314 312 312 312 313 313 315 316 314 312 311 313 318 324 327 328 330 330 327 329 331 330 330 330 330 331 332 332
309 313 314 314 312 312 311 310 312 311 309 309 309 308 307 306 307 308 307 307 306 306 307 307 309 309 309 309 310 311 311 311 313 314 314 314 317 318 317 316 317 315 314 314 314 316 318 315 314 316 316 315 315 314 312 312 314 313 313 315 314 313 313 313 313 313 314 314 314 312 311 317 324 326 327 329 331 330 330 331 330 328 328 328 328 328 329 330
311 314 315 314 313 313 312 312 313 311 308 308 308 307 306 305 308 308 308 308 307 307 309 309 309 308 309 309 309 311 311 311 312 314 315 316 318 319 317 317 319 317 315 315 314 316 318 317 316 316 316 315 313 314 313 312 313 313 311 312 313 313 313 315 315 314 313 314 316 314 314 322 328 327 327 330 330 329 330 330 328 326 327 327 327 326 327 328
313 314 315 314 313 314 314 313 313 311 309 309 308 307 307 308 309 309 308 308 308 309 309 309 309 309 310 309 309 310 310 311 311 312 314 316 319 321 320 317 318 319 318 316 316 317 317 318 318 316 317 317 315 315 315 314 314 314 313 312 312 312 313 313 314 313 313 314 317 315 317 325 328 327 328 329 328 328 328 328 326 325 325 325 326 325 325 326
313 315 316 314 314 315 315 314 313 311 309 310 309 308 309 310 310 310 309 307 308 309 308 308 309 310 310 310 310 310 311 311 311 312 315 318 320 321 320 318 318 318 319 317 319 320 318 319 320 318 317 318 316 316 317 317 317 317 316 315 314 313 312 312 313 315 314 313 315 315 316 322 327 327 327 327 325 326 326 326 326 325 324 324 323 323 323 324
313 315 315 315 315 316 316 314 312 311 311 311 310 309 309 309 309 310 309 308 308 308 308 308 309 310 310 310 311 311 311 311 312 313 315 319 320 320 319 319 317 317 319 320 321 320 318 319 320 318 319 319 318 318 319 317 316 317 317 317 318 316 315 314 316 320 319 314 315 318 319 324 327 326 326 325 324 324 324 324 325 323 323 322 322 322 323 323
314 314 314 314 315 316 315 313 310 310 312 311 311 310 309 309 310 309 309 309 308 309 309 310 310 309 310 310 310 310 311 311 312 313 315 318 318 317 317 318 318 319 321 321 321 320 319 319 319 319 320 321 320 320 320 319 318 318 319 321 321 319 319 318 318 321 320 315 315 318 322 328 329 326 324 324 323 322 321 322 322 322 321 321 321 322 323 323
315 314 313 314 315 316 315 313 310 310 311 312 311 311 309 309 309 309 309 309 308 309 310 310 310 309 309 310 309 309 310 311 312 312 313 316 317 317 317 318 318 318 319 321 322 320 320 322 322 321 321 322 323 322 321 320 319 320 320 322 324 323 322 322 319 317 317 315 314 317 321 327 328 325 324 324 323 321 320 320 320 320 320 319 320 321 321 321
315 314 314 314 314 314 313 312 311 310 311 311 310 310 310 310 309 308 309 309 309 309 309 310 309 309 309 310 310 309 309 309 311 311 311 313 315 315 316 317 317 317 320 322 321 320 321 322 322 321 321 321 323 323 321 318 319 321 320 322 324 324 324 324 320 317 318 317 318 322 324 328 329 326 325 324 322 319 318 318 318 318 318 319 319 319 319 319
314 313 314 313 313 313 312 310 310 310 310 310 309 309 310 310 310 308 308 309 309 309 309 309 309 309 310 310 311 311 310 309 310 310 310 312 312 313 314 315 315 318 321 321 318 318 321 321 321 322 321 319 320 320 319 318 319 319 319 322 323 322 324 326 323 322 323 319 319 325 328 329 329 326 324 322 320 318 317 316 316 316 317 318 318 318 317 316
313 312 313 313 312 312 311 310 309 309 309 309 309 310 310 310 310 310 309 309 309 309 309 310 309 309 309 310 311 311 311 310 310 310 311 310 312 313 314 314 315 316 319 318 316 319 321 320 321 321 321 320 318 317 318 318 318 318 319 322 322 321 324 327 326 325 326 323 323 327 330 329 325 321 319 318 318 316 315 314 314 314 315 316 316 316 315 314
312 312 312 313 312 311 310 310 309 309 309 309 309 310 310 310 310 310 309 310 310 309 309 310 310 308 308 309 310 311 312 312 311 312 313 312 313 314 314 316 316 314 315 318 319 320 320 319 320 320 320 320 320 317 318 318 319 320 320 320 320 321 323 325 324 324 325 326 327 327 326 322 319 316 315 315 314 314 313 312 312 312 312 313 313 314 313 312
312 312 311 311 311 311 310 309 309 309 308 308 308 309 309 310 310 309 309 309 311 310 309 310 310 309 308 309 310 311 313 314 313 314 314 313 312 313 314 316 316 314 315 317 320 321 319 318 321 320 319 320 321 319 318 318 320 321 320 318 319 320 321 322 322 322 323 326 326 326 324 319 315 314 313 312 312 312 311 311 311 310 310 310 311 311 311 311
313 313 312 311 310 309 309 308 309 309 307 307 308 308 308 309 309 309 308 307 309 310 309 309 310 309 309 310 310 311 311 311 312 312 311 311 311 312 312 313 314 314 314 316 318 320 318 317 320 320 319 319 320 321 320 319 320 321 319 317 318 319 319 320 320 320 321 323 324 325 325 320 314 313 312 311 311 311 310 310 310 309 309 309 309 309 310 309
312 312 311 311 309 307 308 308 308 308 307 307 308 308 308 309 307 308 308 306 307 308 307 308 310 309 310 310 310 310 309 309 309 309 309 309 309 309 310 310 311 311 312 315 317 318 318 317 317 319 319 317 319 322 321 320 322 322 317 314 316 317 317 318 319 317 318 320 321 322 321 317 314 312 311 310 309 309 309 309 309 309 308 308 308 308 308 308
Wind_Speed
9 9 9 9 8 8 9 8 8 8 8 8 8 8 8 9 9 10 11 11 12 13 13 14 13 11 11 13 15 16 17 18 16 12 12 10 6 5 9 8 9 13 16 15 13 13 12 13 12 11 10 8 7 7 7 7 6 5 6 7 6 7 4 2 1 4 3 3 6 3 2 4 5 3 4 3 8 4 3 3 5 5 9 12 12 21 23 22
9 9 9 9 8 8 9 9 8 8 8 8 8 9 9 9 10 10 11 11 12 13 13 14 13 12 12 13 15 15 17 18 17 14 11 10 7 6 10 9 11 14 17 15 15 16 13 12 12 12 10 6 7 6 5 7 7 7 6 6 8 5 2 5 5 6 5 5 4 4 3 4 5 3 4 5 4 5 6 7 8 8 12 12 13 18 20 22
9 9 9 9 9 9 9 9 9 9 8 8 8 9 9 9 10 10 11 11 12 13 13 14 14 13 12 13 15 13 15 17 16 11 10 8 6 5 8 11 14 17 19 14 14 16 11 10 12 11 10 7 6 6 6 7 7 8 7 7 7 4 4 3 3 3 4 6 6 5 5 5 5 4 5 5 6 6 6 4 7 9 11 10 10 14 19 21
9 9 9 10 10 10 10 10 10 10 9 9 9 9 10 9 10 10 11 12 12 13 13 14 14 13 11 12 13 11 13 15 8 6 9 5 6 5 8 12 16 20 17 10 12 15 11 9 11 11 10 7 6 6 7 7 6 7 7 10 4 6 4 1 2 3 3 6 7 6 5 6 5 4 6 6 8 6 7 6 4 10 11 11 11 13 17 18
9 10 10 10 10 10 11 11 11 10 10 10 10 10 10 10 10 11 11 12 12 13 13 14 13 12 11 11 11 9 10 7 4 10 6 4 5 3 9 14 18 20 14 9 11 13 10 10 10 10 9 7 7 7 9 9 7 6 7 12 8 5 4 2 2 2 3 6 6 7 7 6 5 6 7 7 9 3 3 4 6 16 12 11 12 12 15 16
10 10 10 10 10 11 11 12 11 11 11 10 11 10 10 11 11 11 11 12 12 13 13 13 12 11 10 10 10 8 9 3 7 7 2 3 2 6 12 15 19 18 12 10 11 11 10 11 10 10 8 8 8 8 9 9 8 8 7 10 9 7 7 2 2 3 4 7 7 7 7 6 7 8 6 6 8 6 6 3 4 17 17 11 12 12 14 15
10 10 11 11 11 11 11 12 12 11 11 11 11 11 11 11 11 11 11 11 13 13 13 12 11 10 9 11 9 9 11 5 6 4 2 2 3 10 14 16 19 14 11 11 11 11 10 11 11 9 8 8 8 9 8 8 9 10 8 8 7 6 8 7 6 6 6 7 7 7 8 7 9 8 4 6 9 3 6 3 2 11 15 12 12 12 13 15
10 11 11 12 12 12 12 13 12 12 12 11 11 11 11 12 11 12 11 12 12 13 13 12 10 9 8 10 8 9 10 2 8 3 2 4 7 13 16 16 17 12 11 13 11 10 10 11 12 9 9 8 6 8 7 7 11 12 11 8 6 6 7 8 7 7 7 7 7 8 9 8 9 8 6 9 8 2 5 0 3 8 12 11 11 11 12 13
10 11 11 12 13 13 13 13 13 13 12 12 11 11 12 12 12 12 12 12 11 13 13 11 9 6 6 8 9 7 2 6 8 3 2 8 12 16 17 15 15 12 11 12 10 11 9 9 12 9 8 6 4 8 8 8 8 9 12 10 8 8 7 8 8 8 8 6 7 8 10 9 8 8 8 12 5 4 1 3 4 8 12 11 9 9 11 13
10 11 12 13 13 13 13 14 14 13 13 13 12 12 12 12 13 12 12 13 12 13 13 11 7 5 8 9 10 6 5 7 6 6 8 12 15 17 16 13 14 12 10 11 10 11 9 7 8 6 7 6 4 7 9 9 4 2 8 10 10 10 8 8 8 8 8 8 8 9 10 9 8 7 9 10 4 2 4 6 5 6 10 12 11 11 12 12
10 11 12 13 13 14 14 14 14 14 14 14 13 13 13 13 13 13 14 14 13 13 12 10 5 5 10 9 10 4 6 5 4 8 11 14 16 17 15 12 13 12 9 9 9 10 9 7 5 4 4 4 6 8 9 11 7 4 7 8 10 12 11 10 10 9 8 8 8 10 11 10 8 9 11 7 7 5 5 6 7 7 8 10 11 12 11 11
10 11 12 13 14 14 14 15 14 14 15 14 13 13 14 14 14 15 15 15 14 13 11 7 1 5 10 9 9 2 5 3 4 8 12 14 15 14 11 11 12 10 7 7 9 9 8 5 7 9 4 2 6 6 6 10 9 7 8 9 11 13 13 13 13 9 9 8 5 6 8 10 11 12 15 9 6 6 7 6 8 9 9 8 8 10 10 10
11 11 12 13 14 15 15 15 15 15 16 15 14 14 14 15 15 15 15 14 13 11 10 4 3 6 10 7 4 2 2 3 6 8 12 14 13 10 9 10 9 6 5 5 5 6 7 5 9 12 6 6 6 2 1 7 8 8 9 9 9 10 12 14 12 8 9 6 3 5 7 10 14 16 19 12 7 7 9 8 8 9 8 8 9 9 9 10
11 11 12 13 14 15 15 15 15 16 16 16 15 15 15 16 15 13 12 11 10 9 6 4 5 6 8 5 2 6 5 5 7 10 13 14 12 10 9 9 7 6 5 4 2 3 6 6 9 10 7 9 5 1 4 8 6 8 10 8 8 8 6 11 11 8 8 5 6 9 7 8 10 17 18 9 7 9 10 10 9 9 9 9 11 10 10 10
11 11 11 13 14 15 15 15 15 16 17 17 16 16 16 15 12 9 8 7 6 3 4 6 7 6 7 6 4 7 8 7 9 13 14 14 14 11 11 9 7 7 6 5 3 3 5 7 8 8 7 8 7 4 8 8 7 8 8 7 8 7 4 11 11 9 7 5 8 11 7 7 8 10 12 7 6 10 10 11 10 9 11 12 10 9 9 9
11 10 11 13 14 15 16 15 15 17 17 17 16 17 16 12 7 6 6 4 1 5 8 6 9 9 7 2 6 6 9 11 13 15 14 15 14 11 11 11 9 8 7 6 4 4 6 7 8 8 7 8 7 8 7 7 7 8 7 8 7 8 6 8 10 10 6 3 9 10 7 8 7 7 10 6 8 10 10 12 11 10 10 11 10 9 9 9
11 11 11 13 14 15 15 15 15 17 17 17 17 15 12 8 3 3 3 1 2 6 8 6 5 8 7 0 5 7 11 10 11 16 16 15 14 10 11 11 9 10 8 7 5 6 7 7 7 6 7 7 7 8 8 8 7 7 8 8 8 8 6 4 8 10 7 5 8 9 8 10 7 5 8 8 10 11 12 12 11 11 10 9 9 10 9 9
11 11 11 13 14 15 15 15 16 16 16 16 13 11 9 6 2 1 2 4 5 7 8 7 4 6 6 7 6 5 11 10 9 15 16 16 15 11 11 11 9 10 9 7 8 8 7 7 7 6 7 7 8 9 8 8 7 7 9 8 8 8 8 6 4 8 9 7 8 8 8 11 11 6 5 9 9 11 13 12 11 11 10 10 10 10 10 9
11 11 12 13 14 15 15 15 16 16 16 13 9 7 7 4 4 7 9 8 8 6 3 5 8 3 2 8 6 5 10 10 10 13 14 14 15 14 13 11 9 10 9 7 8 10 7 6 7 7 7 9 11 10 11 12 8 9 8 7 9 8 8 9 4 7 5 6 7 9 9 10 12 12 11 10 10 10 12 11 11 11 11 11 11 10 10 10
12 12 12 13 14 15 16 15 15 15 14 13 10 7 4 3 4 6 8 11 11 10 8 4 10 6 1 5 7 7 8 10 10 11 13 13 14 15 13 11 10 10 10 7 8 9 7 7 8 8 9 11 13 13 15 13 7 8 8 5 8 7 7 9 4 5 3 5 8 9 10 11 11 11 11 11 10 10 11 12 11 12 13 12 12 12 11 11
12 12 12 13 14 15 15 15 15 14 12 11 11 8 3 4 3 1 1 9 13 13 12 7 8 9 5 2 4 6 6 10 11 11 13 13 14 14 12 12 11 9 10 9 7 6 7 8 9 11 12 11 9 11 13 10 5 5 9 7 8 8 9 8 5 5 4 5 8 10 10 11 10 11 11 12 12 11 12 13 13 15 15 13 13 14 13 12
12 12 12 13 14 15 15 15 15 12 8 7 10 10 3 7 5 5 5 7 8 10 10 8 8 9 8 6 5 4 6 10 11 11 14 14 14 12 11 12 12 9 10 11 7 6 7 9 11 13 10 6 4 5 7 6 6 8 9 8 9 8 9 9 7 6 6 5 8 10 9 9 9 10 12 13 14 11 12 14 13 15 16 15 14 13 13 13
12 12 13 13 14 16 15 15 13 10 7 7 10 8 3 4 4 6 6 7 7 7 8 8 9 9 9 9 9 9 9 10 10 13 16 14 14 12 11 13 12 11 11 11 8 7 7 8 13 14 6 5 6 5 5 6 7 8 8 8 10 10 10 9 6 6 6 6 8 10 8 9 9 10 13 14 15 13 13 15 15 14 16 15 15 14 14 14
12 12 13 13 15 15 14 14 12 8 8 10 11 6 3 3 5 7 6 7 5 5 6 5 6 7 6 4 8 13 12 10 10 12 17 15 12 10 11 12 13 12 10 13 12 11 10 2 3 7 6 7 9 8 8 7 7 9 11 10 10 11 13 9 5 5 6 7 10 11 9 9 11 13 15 14 15 15 14 15 16 15 15 15 17 16 15 15
12 12 13 14 15 14 12 12 7 4 6 8 9 5 1 2 4 7 5 5 5 6 7 6 5 4 5 4 6 11 10 10 12 11 17 17 13 10 10 9 10 12 11 14 13 11 12 3 5 4 5 8 10 9 10 9 7 8 11 14 14 13 14 10 9 9 6 8 10 12 10 7 11 16 15 13 14 15 14 15 16 15 15 14 15 15 15 16
12 12 13 13 15 13 9 6 1 2 6 6 2 3 1 2 3 5 4 5 5 7 8 8 7 5 7 6 7 9 9 10 12 11 15 17 15 10 8 7 7 11 12 12 9 7 9 6 8 8 8 9 11 9 11 10 7 8 7 10 13 12 13 11 12 10 7 7 4 5 9 7 9 12 9 9 11 12 13 14 15 15 15 15 14 14 15 16
12 12 13 13 14 12 7 5 5 6 5 2 4 1 2 2 3 3 4 5 4 7 8 7 5 4 6 6 9 8 4 7 10 11 13 15 15 10 9 9 8 9 9 8 8 6 9 6 6 8 9 9 10 8 10 10 8 8 3 2 7 10 12 12 12 10 8 9 4 6 9 9 8 9 8 9 10 10 11 13 15 13 10 9 9 11 12 15
12 12 13 13 12 9 8 9 9 7 1 4 2 1 2 3 3 3 4 4 3 5 5 5 5 3 4 5 10 8 2 7 8 11 14 15 14 10 10 11 10 10 9 8 7 6 9 11 7 9 10 8 8 8 8 10 9 8 2 1 6 9 10 9 9 9 8 10 8 9 11 9 8 9 10 9 9 10 12 12 12 6 2 5 7 10 11 13
13 12 12 13 10 6 7 9 10 8 3 3 2 2 3 4 4 4 5 2 4 4 2 4 4 6 7 6 10 9 5 6 4 8 15 15 14 11 9 11 12 11 11 10 9 4 6 9 8 9 9 7 9 8 7 9 9 8 3 4 7 7 8 8 8 9 9 9 10 11 11 9 7 8 9 8 8 10 9 5 1 3 3 3 5 9 13 16
13 12 12 13 9 4 5 9 13 11 5 3 4 3 4 5 4 5 4 2 3 5 4 4 5 8 10 9 9 10 10 7 4 8 12 11 14 13 8 8 10 11 11 11 12 8 4 4 3 7 9 8 9 9 10 11 10 6 3 6 8 8 9 8 7 7 8 9 11 14 15 12 8 7 6 3 1 2 1 4 4 4 4 3 5 6 10 17
13 13 12 11 9 6 6 5 6 7 5 4 5 5 6 5 4 6 3 1 2 5 6 6 6 7 9 9 7 10 11 8 8 10 10 9 13 12 8 7 6 9 11 10 12 13 8 7 5 7 9 8 7 7 8 9 10 8 6 7 8 7 8 7 7 7 8 9 10 13 16 13 10 5 1 2 5 4 3 3 4 3 3 3 6 8 12 14
14 14 13 12 11 11 11 5 2 1 3 4 5 6 6 4 6 5 3 3 3 4 4 5 5 5 6 6 5 9 10 9 9 10 11 10 11 11 11 9 7 8 10 8 9 11 10 10 9 9 10 10 7 7 7 7 9 9 8 8 8 7 7 7 7 7 8 9 10 9 10 9 8 6 3 4 5 5 2 2 3 2 3 4 6 7 7 5
16 15 15 13 13 15 16 10 6 5 4 5 6 6 5 5 5 3 3 5 2 3 1 2 3 4 5 6 7 9 9 9 11 11 11 12 10 11 14 14 12 10 8 8 9 9 9 10 12 11 10 11 11 8 7 7 9 10 9 8 8 7 7 7 7 7 8 9 9 6 6 6 7 4 3 4 4 6 5 5 4 2 1 0 3 3 3 3
18 16 16 13 14 16 15 11 8 7 6 6 6 6 5 6 3 1 2 3 4 3 2 3 4 6 7 7 4 6 7 8 12 11 11 11 10 10 13 15 16 12 8 8 7 8 9 8 11 13 9 11 13 11 8 7 8 10 10 9 8 7 7 6 5 6 6 7 7 7 5 6 5 1 7 6 5 6 5 5 5 4 4 3 3 2 1 4
14 12 11 11 13 15 14 12 8 6 7 7 6 5 6 6 4 4 2 3 4 2 3 4 5 8 9 6 3 5 5 4 10 11 10 10 9 8 10 12 16 14 9 8 6 7 11 8 7 12 10 10 14 13 12 10 7 8 9 9 9 7 6 6 6 5 4 5 5 5 5 6 3 7 8 5 6 7 5 5 5 4 4 4 4 4 2 1
9 6 7 10 11 10 12 13 9 8 7 6 6 7 6 4 1 0 1 3 2 2 2 5 7 8 8 7 6 7 6 5 9 10 8 10 11 10 10 10 13 15 11 7 5 5 9 7 5 10 10 11 13 13 13 12 7 5 8 9 8 8 7 7 7 6 5 6 6 5 6 7 4 5 4 3 6 7 6 7 7 6 6 6 5 5 4 2
8 5 6 8 7 6 10 12 10 9 8 6 7 5 3 2 1 4 3 3 2 3 5 6 6 5 7 6 7 8 9 7 8 8 7 9 8 7 10 9 9 13 13 10 6 3 6 6 5 9 10 10 11 11 13 14 10 6 5 6 6 8 7 5 6 6 6 7 7 7 9 8 5 1 3 3 1 6 8 7 6 7 9 8 7 8 7 5
10 6 5 7 7 7 10 12 10 9 6 6 7 5 4 1 1 2 2 3 4 4 6 6 2 2 6 6 5 7 7 6 7 8 7 7 3 3 5 6 3 7 10 9 6 4 5 6 6 10 11 10 9 9 10 13 14 12 7 4 5 6 6 6 6 6 7 8 7 8 9 6 2 1 2 1 2 5 7 6 5 7 9 8 7 8 8 8
10 6 4 7 8 8 10 12 10 8 6 6 6 4 4 2 2 1 2 2 4 4 5 5 1 3 6 6 3 4 5 6 6 6 6 6 3 4 4 3 4 6 7 7 5 4 4 6 6 7 8 8 8 7 8 9 11 13 10 7 5 6 5 5 5 5 7 8 7 7 8 2 3 2 3 5 4 5 6 6 6 6 7 7 6 7 8 8
8 4 4 7 9 9 10 10 8 6 6 6 3 2 3 3 3 2 1 3 4 4 4 3 2 4 5 5 4 2 3 5 4 5 5 3 3 2 4 3 3 5 6 7 7 5 5 6 5 4 6 6 8 8 9 8 8 10 10 8 7 6 6 5 4 5 6 6 5 7 5 2 4 4 3 5 7 6 6 6 6 5 6 6 6 7 7 7
7 4 4 9 10 10 9 7 6 6 6 4 2 1 3 0 2 4 2 2 4 3 3 4 4 3 3 4 5 3 3 6 5 5 5 3 2 1 3 2 4 4 5 8 7 5 5 5 6 4 4 7 8 8 8 9 8 8 8 9 10 9 7 7 7 7 6 5 5 8 4 3 4 3 4 5 6 7 7 7 6 5 5 5 6 7 7 7
6 3 5 11 12 10 7 5 4 6 5 2 0 2 4 0 1 2 3 4 4 3 2 4 4 4 3 4 4 2 3 6 4 3 3 2 3 2 1 2 5 6 6 4 2 4 3 2 6 6 5 7 9 7 6 8 9 9 8 8 10 10 8 9 7 5 7 7 6 8 5 3 3 4 5 5 5 6 7 7 6 5 4 5 6 7 8 8
5 2 6 11 11 8 6 4 5 5 2 1 1 2 3 2 3 2 3 5 4 2 3 3 3 3 3 3 5 3 2 4 3 2 4 3 4 3 4 2 5 7 6 3 1 3 3 3 7 6 4 7 9 8 10 11 9 9 8 6 7 8 8 8 5 2 7 7 3 6 4 2 3 5 6 6 6 7 7 7 7 6 5 5 6 6 7 7
4 4 6 10 10 7 5 3 4 5 3 3 4 4 3 2 2 2 3 4 3 2 3 4 2 2 3 2 5 5 3 3 3 2 3 1 2 3 5 5 3 2 2 1 1 2 3 3 5 6 5 5 6 6 8 10 7 6 5 5 8 10 11 10 5 2 6 7 5 4 2 1 2 3 6 7 7 8 7 7 8 7 6 6 7 7 7 7
4 4 5 8 8 7 4 3 2 3 5 4 4 5 4 3 1 3 2 1 1 2 2 4 2 2 4 3 5 6 4 3 3 2 2 1 3 1 2 5 5 5 6 3 2 3 3 1 1 5 5 4 5 5 4 3 3 4 5 8 10 13 13 9 6 6 7 8 7 4 1 3 3 4 6 7 8 9 8 8 7 8 8 8 7 7 8 8
3 4 4 6 6 6 3 1 2 2 4 4 2 3 5 4 4 2 4 1 2 3 3 3 2 3 6 4 5 7 6 5 4 3 3 2 2 2 3 3 3 5 6 4 3 3 4 2 3 6 7 5 2 1 3 2 3 6 6 6 7 11 10 7 5 6 5 5 4 2 6 5 3 6 6 7 8 8 7 7 7 8 8 8 8 8 8 9
2 3 5 5 4 4 3 4 4 1 3 4 2 2 4 3 5 5 4 2 1 3 3 3 3 3 4 4 4 6 7 6 6 4 3 3 2 1 3 3 3 5 3 2 1 1 3 4 5 6 9 10 5 3 7 7 5 7 6 5 7 8 8 6 5 5 6 6 3 5 9 8 6 7 7 8 8 7 7 7 7 7 7 7 7 8 9 10
2 1 5 3 2 4 3 4 4 3 3 3 2 2 4 4 5 5 3 2 2 3 3 3 4 3 3 4 3 4 6 7 5 4 4 4 3 2 4 4 4 4 5 5 3 1 2 3 4 5 6 10 9 2 5 6 5 5 5 4 7 7 7 6 3 4 6 5 2 4 8 8 8 7 7 8 8 7 7 7 7 7 8 8 8 9 10 10
2 1 5 1 1 3 4 2 4 5 3 1 2 3 3 4 5 4 2 3 3 3 2 2 4 4 2 3 4 3 3 4 3 1 2 4 4 3 2 1 1 3 4 3 2 0 2 3 3 3 4 7 8 5 3 4 4 2 1 5 7 7 6 7 7 8 9 5 2 7 11 9 6 6 7 8 7 6 6 6 8 9 9 9 9 10 11 11
2 1 3 3 2 4 5 4 3 5 4 1 2 3 2 3 4 4 3 2 3 3 3 4 4 4 1 2 4 2 1 2 1 2 2 3 3 3 2 1 1 2 3 3 2 1 2 3 3 1 3 5 5 3 2 3 3 4 4 7 8 8 7 8 9 11 10 6 2 6 9 6 4 4 7 7 6 7 7 8 10 9 9 10 10 11 12 11
3 2 2 2 4 3 3 4 3 4 4 3 3 3 3 3 2 2 2 1 2 2 2 3 2 3 4 3 3 1 2 2 3 2 3 4 3 3 3 2 3 3 3 3 3 2 2 4 3 3 4 5 4 3 2 3 4 4 7 10 9 8 7 7 8 10 10 10 6 1 3 4 4 5 6 7 7 9 10 10 10 10 10 11 11 12 12 12
2 1 3 2 3 3 3 3 3 3 3 3 2 3 2 2 2 2 2 1 2 1 2 3 3 3 5 4 1 2 2 4 5 5 4 4 4 4 3 3 4 5 4 3 4 2 1 3 5 4 5 5 6 5 3 3 5 2 6 8 7 7 7 5 7 10 11 11 7 2 4 6 6 6 7 8 9 10 10 10 9 9 10 11 11 12 12 12
Wind_Direction
329 327 325 324 324 322 319 316 316 316 316 314 313 311 308 308 306 305 304 302 303 302 303 300 300 305 306 313 311 313 321 315 304 278 245 243 262 254 246 238 210 190 173 177 181 183 188 198 199 196 209 202 216 231 191 213 239 228 234 239 242 237 257 354 84 44 4 52 56 358 351 321 317 355 334 252 211 198 192 180 130 137 81 70 99 125 142 152
328 327 324 322 320 317 316 314 314 313 312 312 309 309 307 305 306 305 303 302 301 300 301 300 303 307 306 309 309 317 322 305 287 271 239 234 261 262 245 218 196 180 170 183 189 188 191 192 191 193 208 203 203 206 181 203 221 229 237 235 243 244 27 16 8 24 351 347 3 308 339 320 307 349 322 293 248 196 190 176 167 145 97 98 115 127 145 152
327 325 322 320 317 314 312 311 311 309 307 307 306 306 306 305 306 304 302 301 301 302 301 300 303 306 308 307 308 321 319 300 279 251 207 218 270 272 235 199 188 177 174 191 195 194 201 194 188 197 212 214 201 191 192 197 205 229 243 238 244 305 6 31 8 4 348 334 314 310 337 291 296 334 293 300 287 229 180 179 188 148 114 119 130 140 152 158
327 324 322 319 316 314 311 309 307 306 305 305 306 304 306 306 304 304 302 300 300 301 301 301 302 305 309 304 309 325 309 288 266 166 163 221 293 271 214 186 181 177 185 213 208 203 216 205 194 209 222 220 205 207 217 198 200 224 233 245 274 358 317 102 48 349 339 315 305 310 298 279 312 311 280 288 268 223 165 211 189 121 125 143 154 160 159 165
326 323 322 318 316 314 311 310 307 306 306 304 305 305 305 304 303 303 303 302 299 300 302 302 303 308 309 302 310 313 292 279 131 121 149 262 305 234 186 179 175 176 195 232 218 210 223 216 203 214 230 230 203 207 229 208 214 242 237 255 286 326 282 97 69 317 326 297 291 287 280 305 321 279 274 280 275 306 111 216 130 122 149 166 163 168 163 168
326 323 320 318 316 313 311 309 307 306 305 305 305 304 303 302 302 302 302 302 298 299 302 302 306 312 307 300 303 283 267 276 110 122 184 285 292 161 164 169 167 176 207 231 215 208 215 213 205 210 226 233 209 209 230 210 215 247 242 249 263 267 269 307 299 284 300 283 279 284 298 315 290 270 273 269 276 328 36 354 105 136 159 170 163 173 170 169
326 322 319 318 315 312 312 309 309 308 307 307 305 304 303 301 301 300 299 299 297 299 299 300 308 311 310 305 291 245 247 257 121 126 276 242 169 149 157 161 162 181 214 216 203 202 208 205 206 211 221 231 216 215 225 212 218 242 252 249 246 247 263 281 284 278 276 275 282 285 290 284 269 271 284 270 267 317 52 3 253 137 144 162 169 178 177 175
325 321 319 317 314 314 312 311 310 309 308 307 306 306 303 301 300 299 296 296 295 297 296 300 307 309 320 316 288 240 240 218 111 124 266 176 151 147 153 157 170 191 208 206 199 202 207 204 212 214 223 235 213 209 212 218 225 232 249 258 252 248 255 266 267 265 267 269 271 266 267 265 263 277 285 261 253 48 51 247 196 140 143 163 171 176 179 183
324 321 319 315 314 314 313 313 312 311 311 309 309 307 304 302 300 297 294 294 291 292 295 297 304 309 314 299 279 264 211 91 101 130 170 153 150 152 156 163 182 196 200 202 201 206 207 202 214 222 248 264 208 210 211 221 229 221 240 251 250 251 250 255 255 256 261 259 261 259 259 257 256 271 260 243 236 68 97 188 157 157 155 155 164 181 186 184
323 321 318 315 314 313 313 312 312 313 311 310 311 308 305 302 299 298 293 290 288 289 292 295 305 309 295 274 265 272 104 97 107 130 146 154 153 158 169 174 182 196 200 198 203 212 217 217 223 236 269 274 230 224 216 224 254 232 246 255 256 262 259 255 255 255 260 256 254 257 256 254 250 255 242 218 165 108 192 165 162 166 149 151 168 185 188 181
322 320 317 315 312 313 312 311 313 313 312 312 311 308 306 303 300 298 292 289 286 284 286 292 304 290 287 275 265 280 99 111 123 137 156 158 159 168 179 179 184 203 201 192 207 218 226 243 255 247 248 248 227 228 223 232 264 277 260 262 255 258 254 245 244 243 249 248 239 251 259 253 241 241 242 206 141 177 201 163 167 163 146 156 173 181 180 178
321 320 318 314 312 312 311 312 313 312 311 310 309 308 305 303 300 296 292 288 284 281 282 283 270 281 285 268 253 274 89 137 142 146 164 161 165 173 177 181 190 208 208 202 208 216 229 247 251 239 241 281 232 217 223 229 247 259 254 261 251 244 241 233 230 227 237 239 219 248 259 241 228 228 237 223 152 182 200 183 174 167 155 155 180 183 175 181
321 320 317 314 312 311 311 313 313 312 312 308 308 307 305 304 300 297 294 287 283 280 278 254 194 266 277 266 230 150 101 159 153 154 167 170 171 170 176 184 194 211 228 237 211 207 228 242 248 245 253 268 238 141 267 230 234 249 241 253 256 245 237 220 210 212 231 228 180 241 254 236 217 211 226 218 171 195 201 200 189 167 148 155 193 188 175 185
320 319 315 313 312 310 311 312 313 313 310 308 309 306 305 305 300 300 300 294 288 274 258 185 189 250 259 263 134 144 161 150 168 174 172 179 175 169 177 182 195 204 214 247 228 208 227 234 247 253 252 258 267 90 239 233 222 243 239 232 241 256 230 180 177 196 214 175 175 230 249 256 222 196 207 189 162 209 207 206 203 172 153 173 198 183 178 188
316 317 315 312 311 310 310 311 313 313 310 309 308 305 307 304 300 308 312 308 297 246 166 164 205 237 254 243 160 164 184 179 196 190 179 184 181 177 180 181 192 192 199 219 213 211 226 225 229 243 231 234 265 248 229 230 213 226 239 229 223 240 185 146 163 202 214 154 180 223 238 257 249 186 174 151 181 218 216 215 212 196 178 179 189 180 182 186
314 316 314 312 310 309 310 311 313 312 309 306 305 306 307 301 303 325 323 310 287 143 150 192 210 221 273 254 140 167 192 201 207 196 189 193 193 189 177 178 184 183 198 205 205 211 212 218 222 242 236 209 229 240 231 227 217 212 227 244 226 214 200 159 167 195 220 185 186 218 249 254 244 150 137 166 212 213 219 222 214 215 204 184 184 186 186 185
314 315 314 312 309 308 310 311 312 310 306 305 307 309 303 289 297 7 359 175 150 152 189 247 214 212 268 134 157 193 187 192 197 190 194 198 204 200 173 178 184 183 194 192 206 214 196 209 219 236 243 221 219 229 235 229 220 208 209 244 247 230 235 177 156 169 188 218 209 214 242 261 259 125 137 191 217 216 215 219 216 218 218 204 196 191 187 191
315 314 313 310 308 309 309 310 311 308 306 306 312 318 306 283 253 273 239 178 175 191 222 258 239 230 237 199 204 182 162 166 169 179 189 196 206 206 186 188 185 181 194 192 203 208 190 200 213 221 222 219 222 220 228 231 231 232 215 222 237 236 246 239 170 148 171 212 228 220 226 247 257 252 215 201 206 225 219 210 218 224 221 220 214 201 191 192
314 314 314 310 308 308 308 310 311 309 309 313 322 326 314 285 245 242 228 199 187 211 238 189 202 260 85 178 192 118 137 150 154 171 182 189 199 203 197 197 190 190 203 194 189 197 194 201 209 223 221 209 220 223 230 240 258 278 259 229 236 235 231 235 181 126 171 227 233 237 242 245 245 246 247 227 201 217 231 214 210 226 228 224 224 217 199 192
314 314 313 309 309 308 308 310 309 311 313 316 316 292 266 251 237 216 209 212 216 249 290 206 203 243 70 160 169 140 146 161 178 184 178 181 187 193 198 199 195 200 216 200 174 187 201 217 213 219 228 218 219 225 238 257 297 306 287 263 255 260 249 240 184 141 202 252 248 246 249 254 255 251 252 248 216 200 229 229 208 221 232 226 227 224 209 200
314 315 313 309 309 306 307 308 305 311 311 307 298 270 274 340 320 17 243 235 222 236 262 246 230 248 253 235 165 161 182 190 202 194 172 176 184 187 189 195 199 200 218 211 171 176 205 227 229 224 233 234 232 228 235 264 312 275 266 270 260 254 256 244 167 158 208 234 253 253 249 248 248 251 253 256 242 207 215 232 217 219 231 230 227 226 222 210
315 315 313 310 309 307 307 306 304 312 310 281 265 259 316 19 358 342 321 274 239 232 244 237 240 250 244 241 209 205 232 205 197 185 170 178 189 189 180 189 207 200 205 209 179 180 212 233 237 233 235 237 259 253 230 246 259 250 252 260 259 250 256 242 167 170 217 227 254 253 253 256 247 247 249 248 249 228 212 228 226 218 227 231 229 228 230 224
314 316 314 311 310 307 307 308 309 311 288 247 249 262 336 27 348 319 293 282 268 231 225 220 222 226 216 217 204 202 227 217 199 182 173 187 199 200 191 189 211 212 198 204 201 206 222 224 227 227 211 190 222 234 227 235 238 243 244 244 247 243 250 246 190 182 208 226 266 272 270 267 259 253 250 244 245 241 220 220 228 224 225 229 231 232 232 228
315 316 315 314 309 307 312 312 307 287 247 239 254 270 347 352 324 322 293 275 262 193 182 190 211 217 190 176 189 198 218 225 222 189 172 193 206 201 209 200 210 222 201 200 212 232 249 234 190 212 171 184 220 214 219 236 228 226 234 244 250 245 248 250 235 227 219 226 247 261 268 261 250 243 244 240 230 234 230 220 222 224 225 225 227 232 235 234
317 316 317 317 311 313 317 308 289 237 223 241 250 237 266 314 319 325 300 263 236 168 153 169 192 188 144 133 179 197 216 218 228 206 171 195 212 193 210 211 213 223 204 205 216 236 250 191 117 213 195 204 227 215 212 224 237 228 221 234 246 256 263 266 270 266 254 248 236 237 251 254 248 241 236 237 223 215 222 226 224 222 225 227 225 225 231 239
318 316 319 316 315 320 314 301 289 237 246 243 202 156 218 310 324 318 290 256 218 161 155 179 185 154 157 177 176 194 220 208 216 209 173 196 217 205 214 205 208 228 212 209 218 237 246 181 153 218 224 215 225 222 213 209 236 246 217 224 236 251 266 264 264 264 256 267 260 232 255 266 263 254 234 239 243 217 209 226 231 224 222 224 226 224 222 234
316 316 318 312 316 323 313 325 335 287 256 159 103 130 282 317 316 300 261 251 213 159 154 165 165 154 166 168 171 195 210 151 182 198 181 198 210 213 231 205 191 231 233 223 220 222 237 208 164 214 222 220 225 222 213 204 227 244 201 214 239 241 251 250 249 255 256 266 255 210 245 267 273 272 249 228 236 232 221 227 229 229 235 236 245 242 229 233
314 315 316 308 312 314 294 302 301 279 318 67 78 259 323 318 276 250 243 238 149 144 159 136 119 161 181 169 193 214 97 125 180 189 182 200 205 203 233 225 207 216 221 234 223 172 199 215 202 210 219 221 224 223 207 199 228 250 223 220 257 254 253 252 249 249 252 258 254 230 234 252 259 265 263 233 212 224 235 232 216 202 302 335 327 302 280 259
314 314 312 309 315 312 277 277 272 272 348 22 276 303 321 285 254 236 252 252 135 145 169 129 140 188 193 183 201 217 210 198 212 166 173 196 210 214 237 239 234 218 199 216 233 187 182 215 215 212 220 222 222 227 209 198 224 258 268 226 245 260 255 253 253 255 252 246 254 252 243 252 260 258 260 244 218 226 237 244 162 74 27 349 324 313 304 282
313 309 310 311 316 324 277 251 248 260 287 284 276 304 278 253 238 225 223 215 166 154 148 162 169 179 189 195 192 197 208 203 142 152 176 189 203 220 248 246 247 237 205 203 235 244 167 152 225 228 227 232 229 225 219 217 223 243 265 235 232 235 238 243 246 254 260 245 243 251 250 253 258 257 267 268 247 282 289 88 59 353 333 311 278 271 272 266
309 305 308 301 295 305 286 242 228 244 239 263 287 275 249 224 235 241 187 140 187 153 159 185 171 169 200 221 198 179 197 195 160 171 186 185 193 206 225 227 233 239 219 201 228 237 196 166 210 227 227 240 241 225 220 224 225 225 233 237 233 224 223 231 232 234 248 249 245 248 250 249 249 254 285 103 102 57 0 118 141 199 219 246 254 241 241 244
305 301 297 282 273 272 262 252 28 339 216 275 282 243 234 208 226 244 155 154 206 164 166 177 168 188 212 232 209 175 189 193 177 184 189 188 194 196 209 215 195 212 223 206 214 228 217 209 209 203 212 224 228 218 205 206 220 223 223 231 234 226 220 225 230 227 231 243 250 256 255 250 253 252 204 172 133 107 56 54 92 160 181 215 232 221 235 227
303 299 291 276 262 253 249 255 287 283 259 279 261 226 238 228 221 243 176 174 142 94 119 162 185 224 215 217 200 178 192 191 180 193 195 191 199 199 209 218 205 208 227 216 213 221 219 217 211 204 201 205 217 223 201 191 205 215 217 223 228 228 226 228 235 239 238 239 237 243 259 253 259 277 106 111 93 90 81 65 49 357 57 344 262 208 199 168
303 294 282 267 250 244 245 250 259 263 255 249 235 213 231 239 219 273 248 160 102 94 172 187 221 229 226 237 200 174 212 200 180 193 196 192 204 203 203 215 216 219 229 224 225 229 230 223 209 209 196 187 210 230 231 217 207 212 222 229 233 238 240 241 245 250 254 251 225 206 230 257 252 142 95 103 108 100 94 83 63 18 36 38 342 2 175 179
306 291 270 250 241 239 235 233 234 240 236 228 227 212 211 232 220 206 223 93 100 192 179 178 231 229 218 222 197 196 225 210 195 205 205 199 205 206 200 207 213 218 227 225 214 225 240 238 199 206 208 197 208 224 238 245 230 209 217 229 234 238 243 255 272 284 291 284 256 208 221 261 225 139 125 130 124 107 101 85 66 43 44 54 45 35 10 171
310 282 243 224 227 227 215 212 211 217 228 225 222 217 208 235 285 113 22 27 20 292 249 205 222 235 219 191 188 200 186 196 222 216 213 214 207 205 207 201 204 211 224 234 216 214 237 238 185 193 211 216 217 218 222 235 246 217 213 224 229 233 242 251 255 260 264 264 267 247 236 246 210 143 116 145 143 117 91 67 49 41 54 58 60 55 32 48
301 258 209 193 197 191 187 191 192 203 227 236 224 233 235 214 0 24 23 349 317 301 277 238 199 222 242 204 185 190 175 185 223 220 221 222 209 210 216 208 204 210 218 233 236 227 243 250 207 195 209 218 224 229 221 222 234 237 227 228 226 230 242 257 254 239 235 245 248 243 247 251 232 202 2 344 85 86 77 74 59 49 50 43 39 44 36 25
290 254 188 151 145 156 168 174 186 200 221 238 230 248 275 165 81 8 8 329 299 265 259 261 197 204 260 241 190 183 184 190 205 212 226 219 216 318 250 216 224 232 229 232 228 205 228 246 220 205 215 208 205 234 232 217 224 235 246 251 239 238 230 225 238 239 238 244 241 238 247 265 294 144 120 1 11 72 85 89 78 59 46 32 23 28 28 23
275 246 169 136 136 149 160 169 191 210 216 228 224 222 242 220 104 28 343 291 278 265 257 272 268 222 248 256 229 187 208 226 205 203 225 211 199 323 296 230 218 234 241 247 238 206 226 248 219 206 225 206 185 218 229 209 214 230 243 243 238 255 250 229 233 239 244 248 245 242 237 206 56 50 136 135 108 95 103 93 72 54 37 26 18 15 18 22
249 224 148 144 149 148 158 177 200 216 212 227 241 168 188 202 148 130 330 280 261 274 280 288 254 226 237 260 266 234 229 248 226 212 226 177 127 272 270 262 234 214 218 234 236 220 224 240 225 226 264 236 198 212 230 220 205 213 229 231 224 231 243 248 237 229 248 266 264 257 248 130 65 13 13 77 80 70 81 86 74 55 32 21 16 9 7 12
229 217 143 156 164 153 164 194 207 214 212 219 264 154 131 76 159 147 136 275 268 282 304 300 286 262 261 255 243 226 251 257 232 220 225 161 104 279 235 253 285 262 228 218 221 236 234 233 236 241 260 241 221 218 233 239 233 220 219 224 226 225 231 241 229 213 225 238 249 253 238 98 68 43 36 55 66 62 70 83 86 77 52 30 19 11 7 7
228 210 138 156 169 167 186 211 202 221 224 176 57 93 103 9 265 155 152 203 242 255 244 267 279 277 274 278 271 244 262 263 240 231 243 145 87 48 128 223 255 256 259 235 226 307 321 272 253 238 223 247 260 273 271 259 258 255 244 233 231 227 229 240 238 234 238 231 257 276 248 140 91 80 83 78 71 63 62 73 85 81 61 47 31 18 16 15
206 159 137 160 176 190 216 217 190 209 215 129 155 108 119 202 221 197 187 193 215 223 207 232 257 252 248 294 302 283 270 283 278 258 245 138 87 43 45 7 247 242 274 292 318 333 323 244 252 249 238 256 270 294 288 263 251 253 252 255 259 251 243 244 240 270 269 256 281 301 276 151 100 87 94 93 80 66 52 55 67 64 54 52 42 32 30 30
181 131 148 172 186 210 235 231 197 181 149 180 202 150 135 231 251 246 214 193 212 214 220 246 254 250 244 240 268 277 303 285 254 265 269 143 81 352 18 17 301 269 12 5 326 316 281 248 255 252 246 243 236 247 262 255 251 259 271 315 321 294 268 255 242 239 262 252 227 242 274 111 111 94 92 89 81 70 55 49 56 57 51 48 44 42 37 37
170 134 151 170 186 217 249 300 279 165 145 185 196 159 168 166 90 307 293 106 313 291 261 258 238 254 265 245 247 260 265 254 253 295 308 151 139 184 40 29 7 45 67 40 316 269 261 284 260 251 255 255 242 232 235 260 287 295 336 6 337 299 284 275 256 238 245 247 237 233 147 119 114 83 81 79 73 67 55 45 47 47 43 41 41 40 37 36
170 151 155 159 183 221 254 301 270 198 158 173 164 174 210 169 125 241 260 185 213 247 263 272 245 240 260 268 265 253 232 218 241 268 274 235 157 132 96 73 51 66 63 9 318 269 265 246 225 248 256 259 270 180 188 206 287 290 328 2 309 290 305 313 270 255 278 281 259 116 110 125 86 55 57 57 59 61 50 40 42 39 35 39 40 37 37 34
206 170 162 160 181 204 215 207 209 194 169 181 165 184 216 182 137 169 226 243 227 229 242 263 249 230 250 271 275 266 254 231 228 250 276 259 227 150 134 152 134 111 126 242 258 275 292 276 264 266 262 268 289 133 172 189 217 262 286 306 287 295 320 309 263 282 312 290 252 99 112 128 98 63 54 51 56 60 49 39 38 37 34 38 40 39 36 31
227 157 142 161 204 174 185 199 166 131 167 196 206 197 198 192 168 164 192 205 191 214 223 231 237 223 233 267 259 248 261 254 236 250 284 279 259 215 177 159 131 143 189 219 205 174 258 266 272 275 277 290 297 240 181 192 205 239 268 303 309 314 327 324 314 332 327 293 282 60 92 110 98 77 59 52 54 56 52 43 37 36 34 35 39 41 37 31
222 159 132 157 260 125 115 129 138 139 151 172 186 193 196 190 177 163 181 193 178 208 248 243 239 229 208 275 276 243 255 272 250 217 309 301 287 269 224 162 143 183 203 225 199 213 268 218 218 263 295 294 280 249 210 208 194 188 350 355 341 327 337 2 7 354 345 335 37 83 89 84 71 67 59 51 50 55 57 50 44 38 32 32 36 39 38 35
240 122 130 167 146 104 109 126 161 158 141 157 193 181 191 187 176 169 183 217 193 193 226 228 231 252 272 288 280 233 107 331 318 82 3 303 271 276 283 291 270 216 203 220 198 186 270 223 173 153 297 281 271 255 240 227 185 126 66 23 0 348 1 24 19 5 359 354 34 107 108 89 65 69 67 58 54 59 56 50 47 41 34 37 40 40 39 37
301 0 302 204 139 138 156 150 188 183 154 176 187 172 189 182 165 161 129 341 290 208 239 256 257 281 271 268 278 225 101 19 329 337 328 302 290 308 303 305 313 289 250 241 228 197 256 263 235 211 233 245 246 239 241 242 212 133 65 29 10 9 14 24 31 23 9 354 344 8 116 96 104 97 77 69 63 61 57 51 51 44 38 43 45 43 41 37
275 228 263 257 136 180 200 152 189 195 127 87 116 157 189 136 136 186 120 33 288 59 35 328 327 289 249 236 299 344 14 346 321 318 313 291 280 282 280 277 281 275 266 263 259 239 243 278 269 254 243 224 203 205 215 235 232 174 57 19 2 17 18 23 44 35 15 357 351 27 69 84 114 112 90 78 66 59 52 45 47 48 45 47 48 46 43 38